Saint Bonnet de Bellac- Haute Vienne - France
Donnes mto: jeudi, 20/09/2012
Date Horaire Temp. E. Hum. E. P.atmo. Pluie Vent Direction Direction Ensoleilleme Solaire P. de rose Temp au vent Rafales
20/09/2012 00:00 7,2 C 67 % 1023,1 hPa 0,0 mm 0,0 km/h (0 Bft) E-SE 112 0 min 0 W/m 1,5 C 7,2 C 0,0 km/h (0 Bft)
20/09/2012 00:10 7,2 C 66 % 1023,2 hPa 0,0 mm 0,0 km/h (0 Bft) SE 135 0 min 0 W/m 1,3 C 7,2 C 0,0 km/h (0 Bft)
20/09/2012 00:20 7,1 C 67 % 1023,2 hPa 0,0 mm 0,0 km/h (0 Bft) SE 135 0 min 0 W/m 1,4 C 7,1 C 0,0 km/h (0 Bft)
20/09/2012 00:30 6,9 C 68 % 1023,2 hPa 0,0 mm 0,0 km/h (0 Bft) SE 135 0 min 0 W/m 1,4 C 6,9 C 0,0 km/h (0 Bft)
20/09/2012 00:40 6,9 C 68 % 1023,2 hPa 0,0 mm 0,0 km/h (0 Bft) SE 135 0 min 0 W/m 1,4 C 6,9 C 0,0 km/h (0 Bft)
20/09/2012 00:50 6,6 C 68 % 1023,2 hPa 0,0 mm 0,0 km/h (0 Bft) SE 135 0 min 0 W/m 1,1 C 6,6 C 0,0 km/h (0 Bft)
20/09/2012 01:00 6,4 C 68 % 1023,3 hPa 0,0 mm 0,0 km/h (0 Bft) SE 135 0 min 0 W/m 0,9 C 6,4 C 0,0 km/h (0 Bft)
20/09/2012 01:10 6,3 C 69 % 1023,2 hPa 0,0 mm 0,0 km/h (0 Bft) SE 135 0 min 0 W/m 1,0 C 6,3 C 0,0 km/h (0 Bft)
20/09/2012 01:20 5,9 C 69 % 1023,2 hPa 0,0 mm 0,0 km/h (0 Bft) SE 135 0 min 0 W/m 0,7 C 5,9 C 0,0 km/h (0 Bft)
20/09/2012 01:30 5,7 C 70 % 1023,2 hPa 0,0 mm 0,0 km/h (0 Bft) SE 135 0 min 0 W/m 0,7 C 5,7 C 0,0 km/h (0 Bft)
20/09/2012 01:40 5,4 C 71 % 1023,2 hPa 0,0 mm 0,0 km/h (0 Bft) SE 135 0 min 0 W/m 0,6 C 5,4 C 0,0 km/h (0 Bft)
20/09/2012 01:50 5,3 C 72 % 1023,1 hPa 0,0 mm 0,0 km/h (0 Bft) NE 45 0 min 0 W/m 0,7 C 5,3 C 0,0 km/h (0 Bft)
20/09/2012 02:00 5,2 C 73 % 1022,9 hPa 0,0 mm 0,0 km/h (0 Bft) E 90 0 min 0 W/m 0,8 C 5,2 C 0,0 km/h (0 Bft)
20/09/2012 02:10 5,1 C 73 % 1023,0 hPa 0,0 mm 0,0 km/h (0 Bft) E 90 0 min 0 W/m 0,7 C 5,1 C 0,0 km/h (0 Bft)
20/09/2012 02:20 4,9 C 73 % 1023,1 hPa 0,0 mm 0,0 km/h (0 Bft) E 90 0 min 0 W/m 0,5 C 4,9 C 0,0 km/h (0 Bft)
20/09/2012 02:30 4,9 C 74 % 1022,9 hPa 0,0 mm 0,0 km/h (0 Bft) E-SE 112 0 min 0 W/m 0,7 C 4,9 C 0,0 km/h (0 Bft)
20/09/2012 02:40 5,1 C 75 % 1022,9 hPa 0,0 mm 0,0 km/h (0 Bft) E 90 0 min 0 W/m 1,0 C 5,1 C 0,0 km/h (0 Bft)
20/09/2012 02:50 5,3 C 75 % 1022,8 hPa 0,0 mm 0,0 km/h (0 Bft) E-SE 112 0 min 0 W/m 1,2 C 5,3 C 0,0 km/h (0 Bft)
20/09/2012 03:02 5,4 C 75 % 1022,8 hPa 0,0 mm 0,0 km/h (0 Bft) SE 135 0 min 0 W/m 1,3 C 5,4 C 0,0 km/h (0 Bft)
20/09/2012 03:10 5,1 C 75 % 1022,8 hPa 0,0 mm 0,0 km/h (0 Bft) E-SE 112 0 min 0 W/m 1,0 C 5,1 C 0,0 km/h (0 Bft)
20/09/2012 03:20 5,1 C 76 % 1022,6 hPa 0,0 mm 0,0 km/h (0 Bft) SE 135 0 min 0 W/m 1,2 C 5,1 C 0,0 km/h (0 Bft)
20/09/2012 03:30 5,3 C 77 % 1022,5 hPa 0,0 mm 0,0 km/h (0 Bft) SE 135 0 min 0 W/m 1,6 C 5,3 C 0,0 km/h (0 Bft)
20/09/2012 03:40 5,3 C 76 % 1022,4 hPa 0,0 mm 2,5 km/h (1 Bft) E-SE 112 0 min 0 W/m 1,4 C 5,3 C 4,3 km/h (1 Bft)
20/09/2012 03:50 5,3 C 76 % 1022,4 hPa 0,0 mm 0,4 km/h (0 Bft) E 90 0 min 0 W/m 1,4 C 5,3 C 3,6 km/h (1 Bft)
20/09/2012 04:00 5,3 C 77 % 1022,2 hPa 0,0 mm 0,0 km/h (0 Bft) E-SE 112 0 min 0 W/m 1,6 C 5,3 C 0,0 km/h (0 Bft)
20/09/2012 04:10 5,2 C 77 % 1022,2 hPa 0,0 mm 0,0 km/h (0 Bft) E-SE 112 0 min 0 W/m 1,5 C 5,2 C 0,0 km/h (0 Bft)
20/09/2012 04:20 5,1 C 77 % 1022,1 hPa 0,0 mm 0,0 km/h (0 Bft) E 90 0 min 0 W/m 1,4 C 5,1 C 0,0 km/h (0 Bft)
20/09/2012 04:30 4,9 C 77 % 1021,9 hPa 0,0 mm 1,1 km/h (1 Bft) SE 135 0 min 0 W/m 1,2 C 4,9 C 3,6 km/h (1 Bft)
20/09/2012 04:40 4,8 C 78 % 1021,8 hPa 0,0 mm 0,4 km/h (0 Bft) E-SE 112 0 min 0 W/m 1,3 C 4,8 C 4,0 km/h (1 Bft)
20/09/2012 04:50 4,6 C 78 % 1021,7 hPa 0,0 mm 0,4 km/h (0 Bft) SE 135 0 min 0 W/m 1,1 C 4,6 C 3,6 km/h (1 Bft)
20/09/2012 05:00 4,5 C 79 % 1021,8 hPa 0,0 mm 0,0 km/h (0 Bft) SE 135 0 min 0 W/m 1,2 C 4,5 C 0,0 km/h (0 Bft)
20/09/2012 05:10 4,3 C 79 % 1021,7 hPa 0,0 mm 0,0 km/h (0 Bft) SE 135 0 min 0 W/m 1,0 C 4,3 C 0,0 km/h (0 Bft)
20/09/2012 05:20 4,2 C 79 % 1021,5 hPa 0,0 mm 0,0 km/h (0 Bft) E-SE 112 0 min 0 W/m 0,9 C 4,2 C 0,0 km/h (0 Bft)
20/09/2012 05:30 4,0 C 80 % 1021,5 hPa 0,0 mm 0,7 km/h (0 Bft) E-SE 112 0 min 0 W/m 0,9 C 4,0 C 2,2 km/h (1 Bft)
20/09/2012 05:40 3,9 C 80 % 1021,3 hPa 0,0 mm 0,0 km/h (0 Bft) SE 135 0 min 0 W/m 0,8 C 3,9 C 0,0 km/h (0 Bft)
20/09/2012 05:50 3,6 C 80 % 1021,2 hPa 0,0 mm 0,0 km/h (0 Bft) SE 135 0 min 0 W/m 0,5 C 3,6 C 2,9 km/h (1 Bft)
20/09/2012 06:00 3,6 C 81 % 1021,1 hPa 0,0 mm 0,7 km/h (0 Bft) E-SE 112 0 min 0 W/m 0,7 C 3,6 C 0,7 km/h (0 Bft)
20/09/2012 06:10 3,5 C 81 % 1021,0 hPa 0,0 mm 0,0 km/h (0 Bft) E-SE 112 0 min 0 W/m 0,6 C 3,5 C 3,6 km/h (1 Bft)
20/09/2012 06:20 3,5 C 82 % 1020,9 hPa 0,0 mm 0,0 km/h (0 Bft) E-SE 112 0 min 0 W/m 0,7 C 3,5 C 0,0 km/h (0 Bft)
20/09/2012 06:30 3,6 C 82 % 1020,8 hPa 0,0 mm 1,1 km/h (1 Bft) E 90 0 min 0 W/m 0,8 C 3,6 C 4,0 km/h (1 Bft)
20/09/2012 06:40 3,6 C 82 % 1020,9 hPa 0,0 mm 0,0 km/h (0 Bft) E-NE 67 0 min 0 W/m 0,8 C 3,6 C 0,0 km/h (0 Bft)
20/09/2012 06:50 3,6 C 82 % 1020,9 hPa 0,0 mm 0,4 km/h (0 Bft) E-SE 112 0 min 0 W/m 0,8 C 3,6 C 4,0 km/h (1 Bft)
20/09/2012 07:00 3,5 C 82 % 1020,9 hPa 0,0 mm 0,0 km/h (0 Bft) E 90 0 min 0 W/m 0,7 C 3,5 C 0,0 km/h (0 Bft)
20/09/2012 07:10 3,3 C 81 % 1020,9 hPa 0,0 mm 0,0 km/h (0 Bft) E 90 0 min 0 W/m 0,4 C 3,3 C 0,0 km/h (0 Bft)
20/09/2012 07:20 3,2 C 81 % 1020,8 hPa 0,0 mm 1,4 km/h (1 Bft) E 90 0 min 0 W/m 0,3 C 3,2 C 3,2 km/h (1 Bft)
20/09/2012 07:30 3,1 C 82 % 1020,9 hPa 0,0 mm 0,4 km/h (0 Bft) E-NE 67 0 min 0 W/m 0,3 C 3,1 C 3,6 km/h (1 Bft)
20/09/2012 07:40 2,9 C 82 % 1021,0 hPa 0,0 mm 0,0 km/h (0 Bft) E 90 0 min 0 W/m 0,1 C 2,9 C 0,0 km/h (0 Bft)
20/09/2012 07:50 2,8 C 82 % 1021,0 hPa 0,0 mm 0,4 km/h (0 Bft) E 90 0 min 0 W/m 0,0 C 2,8 C 3,2 km/h (1 Bft)
20/09/2012 08:00 2,8 C 83 % 1021,0 hPa 0,0 mm 0,0 km/h (0 Bft) E-SE 112 0 min 0 W/m 0,2 C 2,8 C 0,0 km/h (0 Bft)
20/09/2012 08:10 2,8 C 83 % 1021,1 hPa 0,0 mm 0,4 km/h (0 Bft) E-SE 112 0 min 0 W/m 0,2 C 2,8 C 3,2 km/h (1 Bft)
20/09/2012 08:20 2,9 C 84 % 1021,2 hPa 0,0 mm 0,0 km/h (0 Bft) E 90 0 min 0 W/m 0,5 C 2,9 C 0,0 km/h (0 Bft)
20/09/2012 08:30 3,1 C 83 % 1021,1 hPa 0,0 mm 1,1 km/h (1 Bft) E 90 0 min 0 W/m 0,5 C 3,1 C 4,0 km/h (1 Bft)
20/09/2012 08:40 3,2 C 83 % 1021,0 hPa 0,0 mm 0,0 km/h (0 Bft) E-NE 67 0 min 0 W/m 0,6 C 3,2 C 0,0 km/h (0 Bft)
20/09/2012 08:50 3,7 C 84 % 1021,0 hPa 0,0 mm 0,0 km/h (0 Bft) NE 45 0 min 0 W/m 1,3 C 3,7 C 0,0 km/h (0 Bft)
20/09/2012 09:00 4,8 C 83 % 1020,8 hPa 0,0 mm 1,1 km/h (1 Bft) E-NE 67 0 min 0 W/m 2,2 C 4,8 C 4,0 km/h (1 Bft)
20/09/2012 09:10 5,8 C 82 % 1020,8 hPa 0,0 mm 2,2 km/h (1 Bft) E-SE 112 0 min 0 W/m 3,0 C 5,8 C 4,0 km/h (1 Bft)
20/09/2012 09:20 6,9 C 79 % 1020,8 hPa 0,0 mm 1,4 km/h (1 Bft) E 90 0 min 0 W/m 3,5 C 6,9 C 4,0 km/h (1 Bft)
20/09/2012 09:30 7,8 C 76 % 1020,9 hPa 0,0 mm 0,4 km/h (0 Bft) E 90 0 min 0 W/m 3,8 C 7,8 C 3,6 km/h (1 Bft)
20/09/2012 09:40 8,9 C 73 % 1021,1 hPa 0,0 mm 0,4 km/h (0 Bft) SE 135 0 min 0 W/m 4,3 C 8,9 C 4,0 km/h (1 Bft)
20/09/2012 09:50 9,8 C 71 % 1021,3 hPa 0,0 mm 0,4 km/h (0 Bft) E-NE 67 0 min 0 W/m 4,8 C 9,8 C 3,2 km/h (1 Bft)
20/09/2012 10:00 10,6 C 69 % 1021,3 hPa 0,0 mm 2,5 km/h (1 Bft) E-NE 67 0 min 0 W/m 5,2 C 10,6 C 2,5 km/h (1 Bft)
20/09/2012 10:10 10,9 C 67 % 1021,3 hPa 0,0 mm 0,0 km/h (0 Bft) E-NE 67 0 min 0 W/m 5,0 C 10,9 C 0,0 km/h (0 Bft)
20/09/2012 10:20 11,6 C 65 % 1021,2 hPa 0,0 mm 0,0 km/h (0 Bft) E-NE 67 0 min 0 W/m 5,2 C 11,6 C 0,0 km/h (0 Bft)
20/09/2012 10:30 12,6 C 64 % 1021,3 hPa 0,0 mm 0,0 km/h (0 Bft) E-NE 67 0 min 0 W/m 6,0 C 12,6 C 0,0 km/h (0 Bft)
20/09/2012 10:40 13,6 C 61 % 1021,3 hPa 0,0 mm 0,4 km/h (0 Bft) NE 45 0 min 0 W/m 6,2 C 13,6 C 0,4 km/h (0 Bft)
20/09/2012 10:50 14,4 C 59 % 1021,2 hPa 0,0 mm 0,7 km/h (0 Bft) N-NE 22 0 min 0 W/m 6,5 C 14,4 C 2,9 km/h (1 Bft)
20/09/2012 11:00 15,4 C 57 % 1021,0 hPa 0,0 mm 1,4 km/h (1 Bft) N-NE 22 0 min 0 W/m 6,9 C 15,4 C 2,9 km/h (1 Bft)
20/09/2012 11:10 16,2 C 55 % 1021,0 hPa 0,0 mm 0,4 km/h (0 Bft) N-NE 22 0 min 0 W/m 7,2 C 16,2 C 4,3 km/h (1 Bft)
20/09/2012 11:20 17,1 C 51 % 1021,0 hPa 0,0 mm 3,6 km/h (1 Bft) E 90 0 min 0 W/m 6,9 C 17,1 C 6,5 km/h (2 Bft)
20/09/2012 11:30 17,4 C 48 % 1021,0 hPa 0,0 mm 5,0 km/h (1 Bft) N-NE 22 0 min 0 W/m 6,3 C 17,4 C 5,0 km/h (1 Bft)
20/09/2012 11:40 17,9 C 46 % 1020,8 hPa 0,0 mm 7,2 km/h (2 Bft) E 90 0 min 0 W/m 6,1 C 17,9 C 14,8 km/h (3 Bft)
20/09/2012 11:50 18,3 C 44 % 1020,9 hPa 0,0 mm 1,8 km/h (1 Bft) E-SE 112 0 min 0 W/m 5,8 C 18,3 C 4,3 km/h (1 Bft)
20/09/2012 12:00 18,9 C 42 % 1020,7 hPa 0,0 mm 4,0 km/h (1 Bft) E-SE 112 0 min 0 W/m 5,7 C 18,9 C 13,0 km/h (3 Bft)
20/09/2012 12:10 18,8 C 41 % 1020,6 hPa 0,0 mm 5,0 km/h (1 Bft) E-SE 112 0 min 0 W/m 5,3 C 18,8 C 6,8 km/h (2 Bft)
20/09/2012 12:20 18,8 C 41 % 1020,5 hPa 0,0 mm 3,6 km/h (1 Bft) NE 45 0 min 0 W/m 5,3 C 18,8 C 8,6 km/h (2 Bft)
20/09/2012 12:30 19,4 C 40 % 1020,4 hPa 0,0 mm 4,7 km/h (1 Bft) E-SE 112 0 min 0 W/m 5,5 C 19,4 C 11,2 km/h (2 Bft)
20/09/2012 12:40 19,9 C 39 % 1020,2 hPa 0,0 mm 0,4 km/h (0 Bft) E-NE 67 0 min 0 W/m 5,5 C 19,9 C 0,4 km/h (0 Bft)
20/09/2012 12:50 20,3 C 39 % 1020,1 hPa 0,0 mm 3,2 km/h (1 Bft) N-NE 22 0 min 0 W/m 5,9 C 20,3 C 6,5 km/h (2 Bft)
20/09/2012 13:00 20,6 C 38 % 1020,1 hPa 0,0 mm 4,7 km/h (1 Bft) E-NE 67 0 min 0 W/m 5,8 C 20,6 C 8,3 km/h (2 Bft)
20/09/2012 13:10 20,9 C 36 % 1019,9 hPa 0,0 mm 8,3 km/h (2 Bft) NE 45 0 min 0 W/m 5,3 C 20,9 C 14,4 km/h (3 Bft)
20/09/2012 13:20 21,3 C 35 % 1019,8 hPa 0,0 mm 2,5 km/h (1 Bft) E-NE 67 0 min 0 W/m 5,2 C 21,3 C 4,0 km/h (1 Bft)
20/09/2012 13:30 21,5 C 35 % 1019,7 hPa 0,0 mm 7,2 km/h (2 Bft) NE 45 0 min 0 W/m 5,4 C 21,5 C 14,4 km/h (3 Bft)
20/09/2012 13:40 21,6 C 35 % 1019,7 hPa 0,0 mm 4,7 km/h (1 Bft) E-NE 67 0 min 0 W/m 5,5 C 21,6 C 9,0 km/h (2 Bft)
20/09/2012 13:50 21,7 C 35 % 1019,7 hPa 0,0 mm 6,1 km/h (2 Bft) NE 45 0 min 0 W/m 5,6 C 21,7 C 7,9 km/h (2 Bft)
20/09/2012 14:00 21,8 C 34 % 1019,5 hPa 0,0 mm 6,8 km/h (2 Bft) E-NE 67 0 min 0 W/m 5,2 C 21,8 C 10,8 km/h (2 Bft)
20/09/2012 14:10 21,7 C 33 % 1019,3 hPa 0,0 mm 8,6 km/h (2 Bft) E 90 0 min 0 W/m 4,7 C 21,7 C 13,7 km/h (3 Bft)
20/09/2012 14:20 21,7 C 33 % 1019,0 hPa 0,0 mm 6,8 km/h (2 Bft) NE 45 0 min 0 W/m 4,7 C 21,7 C 10,1 km/h (2 Bft)
20/09/2012 14:30 21,8 C 33 % 1019,0 hPa 0,0 mm 4,3 km/h (1 Bft) N 360 0 min 0 W/m 4,8 C 21,8 C 9,7 km/h (2 Bft)
20/09/2012 14:40 21,8 C 33 % 1018,9 hPa 0,0 mm 7,2 km/h (2 Bft) E-NE 67 0 min 0 W/m 4,8 C 21,8 C 10,8 km/h (2 Bft)
20/09/2012 14:50 21,8 C 32 % 1018,9 hPa 0,0 mm 7,6 km/h (2 Bft) N-NE 22 0 min 0 W/m 4,4 C 21,8 C 12,6 km/h (3 Bft)
20/09/2012 15:00 21,9 C 32 % 1018,8 hPa 0,0 mm 5,4 km/h (2 Bft) NE 45 0 min 0 W/m 4,5 C 21,9 C 9,7 km/h (2 Bft)
20/09/2012 15:10 22,2 C 31 % 1018,6 hPa 0,0 mm 2,9 km/h (1 Bft) N 360 0 min 0 W/m 4,3 C 22,2 C 6,8 km/h (2 Bft)
20/09/2012 15:20 22,3 C 31 % 1018,5 hPa 0,0 mm 2,9 km/h (1 Bft) E 90 0 min 0 W/m 4,4 C 22,3 C 6,1 km/h (2 Bft)
20/09/2012 15:30 22,6 C 31 % 1018,4 hPa 0,0 mm 3,6 km/h (1 Bft) N 360 0 min 0 W/m 4,6 C 22,6 C 3,6 km/h (1 Bft)
20/09/2012 15:40 22,8 C 30 % 1018,2 hPa 0,0 mm 0,7 km/h (0 Bft) E-NE 67 0 min 0 W/m 4,3 C 22,8 C 0,7 km/h (0 Bft)
20/09/2012 15:50 22,8 C 30 % 1018,1 hPa 0,0 mm 6,8 km/h (2 Bft) NE 45 0 min 0 W/m 4,3 C 22,8 C 9,0 km/h (2 Bft)
20/09/2012 16:00 22,8 C 29 % 1018,0 hPa 0,0 mm 2,5 km/h (1 Bft) E-NE 67 0 min 0 W/m 3,8 C 22,8 C 4,3 km/h (1 Bft)
20/09/2012 16:10 22,7 C 29 % 1017,9 hPa 0,0 mm 2,2 km/h (1 Bft) NE 45 0 min 0 W/m 3,7 C 22,7 C 6,5 km/h (2 Bft)
20/09/2012 16:20 22,8 C 29 % 1017,9 hPa 0,0 mm 4,3 km/h (1 Bft) E-NE 67 0 min 0 W/m 3,8 C 22,8 C 6,8 km/h (2 Bft)
20/09/2012 16:30 22,8 C 29 % 1017,9 hPa 0,0 mm 4,0 km/h (1 Bft) E-NE 67 0 min 0 W/m 3,8 C 22,8 C 7,6 km/h (2 Bft)
20/09/2012 16:40 22,9 C 29 % 1017,8 hPa 0,0 mm 1,8 km/h (1 Bft) E-NE 67 0 min 0 W/m 3,9 C 22,9 C 4,0 km/h (1 Bft)
20/09/2012 16:50 22,9 C 29 % 1017,8 hPa 0,0 mm 1,4 km/h (1 Bft) E-SE 112 0 min 0 W/m 3,9 C 22,9 C 4,0 km/h (1 Bft)
20/09/2012 17:00 22,9 C 29 % 1017,7 hPa 0,0 mm 3,6 km/h (1 Bft) N 360 0 min 0 W/m 3,9 C 22,9 C 7,6 km/h (2 Bft)
20/09/2012 17:10 22,8 C 29 % 1017,4 hPa 0,0 mm 6,5 km/h (2 Bft) NE 45 0 min 0 W/m 3,8 C 22,8 C 9,7 km/h (2 Bft)
20/09/2012 17:20 22,9 C 29 % 1017,3 hPa 0,0 mm 2,9 km/h (1 Bft) NE 45 0 min 0 W/m 3,9 C 22,9 C 4,3 km/h (1 Bft)
20/09/2012 17:30 22,8 C 29 % 1017,4 hPa 0,0 mm 2,5 km/h (1 Bft) E 90 0 min 0 W/m 3,8 C 22,8 C 6,1 km/h (2 Bft)
20/09/2012 17:40 22,6 C 30 % 1017,3 hPa 0,0 mm 4,7 km/h (1 Bft) N 360 0 min 0 W/m 4,1 C 22,6 C 7,9 km/h (2 Bft)
20/09/2012 17:50 22,5 C 31 % 1017,1 hPa 0,0 mm 1,8 km/h (1 Bft) N 360 0 min 0 W/m 4,5 C 22,5 C 3,2 km/h (1 Bft)
_ Min-Heure 08:10 17:30 17:50 - 10:30 - - - - 07:50 08:10 10:30
Minimum _ 2,8 C 29 % 1017,1 hPa - 0,0 km/h (0 Bft) - - - - 0,0 C 2,8 C 0,0 km/h (0 Bft)
_ Max-Heure 17:20 08:50 01:00 17:50 14:10 - - 17:50 17:50 11:10 17:20 11:40
Maximum _ 22,9 C 84 % 1023,3 hPa 0,0 mm 8,6 km/h
E (2 Bft)
- - 0 min 0 W/m 7,2 C 22,9 C 14,8 km/h
E (3 Bft)
Moyenne _ 11,6 C 60 % 1020,8 hPa #0,0 mm 1,8 km/h (1 Bft) E-SE - #0 min. 0 W/m 2,9 C 11,6 C 3,7 km/h (1 Bft)
Saint Bonnet de Bellac- Haute Vienne - France